| time (UTC) | temp F | wind direction | speed MPH | gust MPH | rain 1hr in | rain 24hr in | rain mn in | humidity % | barometer mb |
| 20260831210829 | 86 | 17 | 3.0 | 6.0 | 0.00 | 1.03 | 0.00 | 54 | 1015.2 |
| 20260831203815 | 85 | 20 | 3.0 | 9.0 | 0.00 | 1.03 | 0.00 | 55 | 1015.5 |
| 20260831200827 | 87 | 325 | 2.0 | 4.0 | 0.00 | 1.03 | 0.00 | 55 | 1015.5 |
| 20260831193841 | 86 | 327 | 2.0 | 11.0 | 0.00 | 1.03 | 0.00 | 56 | 1015.6 |
| 20260831190832 | 89 | 290 | 3.0 | 7.0 | 0.00 | 1.03 | 0.00 | 54 | 1015.5 |
| 20260831183834 | 91 | 313 | 2.0 | 4.0 | 0.00 | 1.03 | 0.00 | 51 | 1015.8 |
| 20260831180829 | 91 | 161 | 1.0 | 5.0 | 0.00 | 1.03 | 0.00 | 50 | 1016.1 |
| 20260831173856 | 90 | 175 | 1.0 | 5.0 | 0.00 | 1.03 | 0.00 | 47 | 1016.5 |
| 20260831170817 | 90 | 156 | 2.0 | 5.0 | 0.00 | 1.03 | 0.00 | 42 | 1016.9 |
| 20260831163825 | 89 | 23 | 1.0 | 6.0 | 0.00 | 1.03 | 0.00 | 33 | 1017.5 |
| 20260831160855 | 89 | 119 | 3.0 | 6.0 | 0.00 | 1.03 | 0.00 | 35 | 1017.5 |
| 20260831153822 | 88 | 107 | 1.0 | 6.0 | 0.00 | 1.03 | 0.00 | 36 | 1017.9 |
| 20260831150838 | 88 | 101 | 1.0 | 6.0 | 0.00 | 1.03 | 0.00 | 38 | 1017.5 |
| 20260831143817 | 86 | 92 | 0.0 | 3.0 | 0.00 | 1.03 | 0.00 | 43 | 1017.5 |
| 20260831140831 | 85 | 49 | 1.0 | 3.0 | 0.00 | 1.03 | 0.00 | 42 | 1017.3 |
| 20260831133837 | 83 | 17 | 2.0 | 5.0 | 0.00 | 1.03 | 0.00 | 46 | 1017.2 |
| 20260831020821 | 74 | 103 | 0.0 | 2.0 | 0.00 | 1.03 | 1.03 | 55 | 1016.9 |
| 20260831013821 | 75 | 109 | 1.0 | 2.0 | 0.00 | 1.03 | 1.03 | 55 | 1016.9 |
| 20260831010852 | 75 | 119 | 0.0 | 2.0 | 0.00 | 1.03 | 1.03 | 55 | 1016.8 |
| 20260831003817 | 75 | 119 | 0.0 | 2.0 | 0.00 | 1.03 | 1.03 | 55 | 1016.7 |
| 20260831000819 | 75 | 120 | 0.0 | 2.0 | 0.00 | 1.03 | 1.03 | 55 | 1016.3 |
| 20260830233834 | 76 | 87 | 0.0 | 2.0 | 0.01 | 1.03 | 1.03 | 55 | 1016.1 |
| 20260830230819 | 76 | 86 | 0.0 | 2.0 | 0.02 | 1.09 | 1.03 | 55 | 1015.9 |
| 20260830223848 | 75 | 106 | 0.0 | 2.0 | 0.02 | 1.08 | 1.02 | 54 | 1015.7 |
| 20260830220839 | 75 | 53 | 1.0 | 2.0 | 0.02 | 1.73 | 1.01 | 53 | 1015.6 |
| 20260830213850 | 75 | 113 | 2.0 | 4.0 | 0.44 | 1.72 | 1.00 | 52 | 1016.0 |